Tracking 19177 objects as of 25-May-2018
HD Live streaming from Space Station
objects crossing your sky now

OBJECT J

Track OBJECT J now!
10-day predictions


NORAD ID: 43200
Int'l Code: 2018-015J
Perigee: 459.7 km
Apogee: 502.9 km
Inclination: 97.5 °
Period: 94.1 minutes
Semi major axis: 6852 km
RCS: Unknown
Launch date: February 2, 2018
Source: (TBD)
Launch site: Jiuquan Satellite Launch Center, China (JSC)
aabbcc
Your satellite tracking list
Your tracking list is empty




NASA's NSSDC Master Catalog

Two Line Element Set (TLE):
1 43200U 18015J   18144.60785715 +.00001783 +00000-0 +62190-4 0  9992
2 43200 097.4547 276.7752 0031485 315.1770 044.6933 15.30558882017000
Source of the keplerian elements: AFSPC